Location: Antioch Baptist Church
(32.6696°N, 85.7327°W)
Time: 12:23:55
(UTC+00:00)

Tsikada Rocket - Pass Details

Date: 14 July 2020
Orbit: 959 x 1008 km, 82.9° (Epoch: 08 August)

Event Time Altitude Azimuth Distance (km) Brightness Sun altitude
Rises 08:34:26 0° 345° (NNW) 3,742 7.5 -22.9°
Reaches altitude 10° 08:37:06 10° 338° (NNW) 2,789 6.7 -22.5°
Maximum altitude 08:43:02 41° 271° (W) 1,415 4.5 -21.6°
Enters shadow 08:44:16 38° 244° (WSW) 1,499 4.5 -21.5°
